sat.trackr.live / text

‹ back to catalog

YAHSAT 1A

NORAD 37393 · 2011-016B

PAYLOAD ACTIVE UNKNOWN

§ Identity

Operator
Country
UAE
Launch date
2011-04-22
Launch site
FRGUI
Launch vehicle
Mass (kg)
RCS (m²)
31.62

Purposes: comms

External: N2YO · Heavens-Above · Gunter

§ Orbital elements

Epoch: 2026-09-19T17:24:38.481696Z

Period
1,436.09 min
Inclination
0.0092°
Eccentricity
0.0002207
Mean motion
1.00272267 rev/d
Perigee alt
35,777.2 km
Apogee alt
35,795.8 km
Semi-major
42,164.6 km
B*
0.0000e+0
RAAN
161.1573°
Arg perigee
358.4974°
Mean anomaly
152.6510°
Rev number
4,335

§ Raw data

YAHSAT 1A1 37393U 11016B   26262.72544539  .00000097  00000+0  00000+0 0  99952 37393   0.0092 161.1573 0002207 358.4974 152.6510  1.00272267 43355

JSON: /api/v1/satellites/37393 · /tle

For live sub-satellite position, see the globe view (requires WebGL).

§ Visibility from observer

Set your observer location to see the next 7 days of passes ≥ 10°. The values pass through the URL so the page stays shareable.

No JS? Fill the form by hand. The geolocation button needs JavaScript.